{"data":{"norad_id":56944,"epoch":"2026-09-21T21:57:02.253888Z","epoch_age_seconds":77373,"freshness":"FRESH","line1":"1 56944U 23084N   26264.91460942  .00006205  00000+0  21339-3 0  9993","line2":"2 56944  97.5643  43.2767 0006978 347.7415  12.3655 15.30439442182574","mean_motion":15.30439442,"eccentricity":0.0006978,"inclination_deg":97.5643,"raan_deg":43.2767,"arg_perigee_deg":347.7415,"mean_anomaly_deg":12.3655,"bstar":0.00021339,"rev_number":18257,"period_min":94.090622633078,"perigee_km":469.71846171911,"apogee_km":479.28200224006,"semimajor_km":6852.6372319796,"source":"CELESTRAK","updated_at":"2026-09-22T09:00:25.992673Z"}}